FW2892 Weather Reports


Display with metric or nautical units.
time (UTC)temp
F
wind
direction
speed
MPH
gust
MPH
rain 1hr
in
rain 24hr
in
rain mn
in
humidity
%
barometer
mb
20210126010300 34 126 11.0 15.0 0.00 0.00 0.00 88 1005.3
20210126003307 34 131 11.0 13.0 0.00 0.00 0.00 87 1005.3
20210126000306 35 159 6.0 14.0 0.00 0.00 0.00 87 1005.4
20210125233259 35 129 12.0 15.0 0.00 0.00 0.00 87 1005.7
20210125230305 34 123 8.0 13.0 0.00 0.00 0.00 87 1005.8
20210125223300 34 121 4.0 15.0 0.00 0.00 0.00 88 1006.0
20210125220301 34 98 7.0 16.0 0.00 0.00 0.00 88 1006.3
20210125213306 34 122 4.0 13.0 0.00 0.00 0.00 89 1006.4
20210125210256 34 148 6.0 12.0 0.00 0.00 0.00 90 1006.3
20210125203257 33 128 5.0 14.0 0.00 0.00 0.00 89 1006.6
20210125200259 33 146 9.0 16.0 0.00 0.00 0.00 89 1006.5
20210125193304 33 128 9.0 17.0 0.00 0.00 0.00 89 1006.4
20210125190255 33 134 5.0 15.0 0.00 0.00 0.00 89 1006.8
20210125183257 33 107 10.0 16.0 0.00 0.00 0.00 88 1006.8
20210125180256 33 111 6.0 14.0 0.00 0.00 0.00 88 1007.0
20210125173257 33 116 6.0 16.0 0.00 0.00 0.00 88 1006.9
20210125170255 33 134 5.0 15.0 0.00 0.00 0.00 87 1007.1
20210125163258 33 134 9.0 15.0 0.00 0.00 0.00 87 1007.2
20210125160318 33 94 7.0 18.0 0.00 0.00 0.00 86 1007.2
20210125153302 34 135 7.0 11.0 0.00 0.00 0.00 86 1007.2
20210125150259 34 168 6.0 15.0 0.00 0.00 0.00 86 1007.1
20210125143254 34 136 5.0 14.0 0.00 0.00 0.00 86 1007.0
20210125140256 34 148 5.0 12.0 0.00 0.00 0.00 86 1006.8
20210125133256 34 130 5.0 14.0 0.00 0.00 0.00 86 1006.7
20210125130255 34 110 7.0 14.0 0.00 0.00 0.00 85 1006.9
20210125123258 34 121 7.0 15.0 0.00 0.00 0.00 85 1007.1
20210125120254 33 113 9.0 14.0 0.00 0.00 0.00 85 1007.2
20210125113254 33 150 8.0 16.0 0.00 0.00 0.00 84 1007.0
20210125110254 33 128 10.0 17.0 0.00 0.00 0.00 84 1007.1
20210125103256 33 134 11.0 16.0 0.00 0.00 0.00 84 1007.2
20210125100256 33 117 7.0 11.0 0.00 0.00 0.00 85 1007.3
20210125093303 33 101 8.0 12.0 0.00 0.00 0.00 85 1007.5
20210125090254 32 114 9.0 14.0 0.00 0.00 0.00 86 1007.8
20210125083254 32 124 7.0 15.0 0.00 0.00 0.00 86 1008.3
20210125080255 32 136 11.0 17.0 0.00 0.00 0.00 86 1008.2
20210125073256 32 103 8.0 16.0 0.00 0.00 0.00 87 1008.3
20210125070256 32 117 9.0 14.0 0.00 0.00 0.00 87 1008.4
20210125063254 32 124 8.0 14.0 0.00 0.00 0.00 87 1008.5
20210125060256 32 111 8.0 14.0 0.00 0.00 0.00 86 1008.6
20210125053257 33 95 7.0 14.0 0.00 0.00 0.00 86 1008.5
20210125050256 33 126 10.0 13.0 0.00 0.00 0.00 86 1008.4
20210125043255 33 122 7.0 12.0 0.00 0.00 0.00 87 1008.6
20210125040253 33 128 7.0 10.0 0.00 0.00 0.00 87 1008.5
20210125033258 33 104 7.0 12.0 0.00 0.00 0.00 87 1008.4
20210125030253 33 115 6.0 12.0 0.00 0.03 0.00 87 1008.8
20210125023253 33 103 4.0 10.0 0.00 0.05 0.00 88 1008.9
20210125020300 33 113 8.0 10.0 0.00 0.06 0.00 88 1009.0
20210125013258 33 109 3.0 10.0 0.00 0.07 0.00 89 1009.3